Regional Weather Roundup
Issued by NWS Nashville, TN

Home | Current Version | Previous Version | Text Only | Print | Product List | Glossary On
Versions: 1 2 3 4 5 6 7 8 9 10 11 12 13 14 15 16 17 18 19 20 21 22 23 24 25 26 27 28 29 30 31 32 33 34 35 36 37 38 39 40 41 42 43 44 45 46 47 48 49 50
000
ASUS44 KOHX 262215
RWROHX
MIDDLE TENNESSEE HOURLY WEATHER ROUNDUP
NATIONAL WEATHER SERVICE NASHVILLE TN
400 PM CST THU FEB 26 2015

NOTE: "FAIR" INDICATES FEW OR NO CLOUDS BELOW 12,000 FEET WITH
NO SIGNIFICANT WEATHER AND/OR OBSTRUCTIONS TO VISIBILITY.

* THESE REPORTS ARE NOT UNDER NWS QUALITY CONTROL AND MAY NOT
  REPORT WEATHER SUCH AS PRECIPITATION AND FOG.


TNZ005>011-023>034-057-059-062>066-078-080-262300
...NORTHERN MIDDLE TENNESSEE...

CITY           SKY/WX    TMP DP  RH WIND       PRES   REMARKS
CLARKSVILLE    CLOUDY    31  25  78 NW15      30.17R WCI  20
CROSSVILLE     PTSUNNY   37  23  56 NW7       30.01R WCI  32
GALLATIN         N/A     37  23  57 NW9       30.11R WCI  30
DICKSON        CLOUDY    34  21  60 N12       30.11R WCI  25
LEBANON        CLOUDY    38  23  55 NW9       30.08R WCI  31
NASHVILLE      CLOUDY    39  24  55 NW13      30.11R WCI  31
WEST NASHVILLE CLOUDY    36  21  55 N13       30.12R WCI  27
PORTLAND       CLOUDY    32  21  64 NW15      30.09R WCI  22
SMYRNA         PTSUNNY   41  25  53 N13       30.11R
SPARTA         SUNNY     39  23  52 N8        30.05R WCI  34
$$
TNZ056-058-060-061-075>077-079-093>097-262300
...SOUTHERN MIDDLE TENNESSEE...

CITY           SKY/WX    TMP DP  RH WIND       PRES   REMARKS
COLUMBIA         N/A     43  25  49 NW10      30.08R
LEWISBURG        N/A     43  20  40 NW6       30.07R
MCMINNVILLE    CLOUDY    39  27  60 NW7       30.06R WCI  34
MURFREESBORO   PTSUNNY   43  22  43 NW12      30.08R
SHELBYVILLE    MOSUNNY   43  25  49 NW12      30.08R
TULLAHOMA      PTSUNNY   37  25  60 N8        30.06R WCI  31
WINCHESTER     CLOUDY    39  27  60 N7        30.07R WCI  34
$$


...KEY TO REMARKS...
VSB - VISIBILITY IN MILES
WCI - WIND CHILL INDEX
HX  - HEAT INDEX




USA.gov is the U.S. government's official web portal to all federal, state and local government web resources and services.